[[{"header":{"parameterUnit":"m.s-1","parameterCategory":2,"la1":30.2991,"la2":30.254,"lo1":-89.0895,"lo2":-89.0444,"dy":0.0017,"dx":0.0017,"nx":28,"ny":28,"refTime":"2023-08-18T09:00:00:Z","depth":"0","parameterNumber":2,"parameterNumberName":"U-component_of_CURRENTS"},"data":[0,0,0,0,0,0,0,0,0,0,0,0,0,0,0,0,0,0,0,0,0,0,0,0,0,0,0,0,0,0,0,0,0,0,0,0,0,0,0,0,0,0,0,0,0,0,0,0,0,0,0,0,0,0,0,0,0,0,0.214,0.2143,0,0.2264,0.2264,0.2264,0.2207,0.2206,0.2205,0.2203,0.2219,0.222,0.2222,0,0,0,0,0,0,0,0,0,0,0,0,0,0.1853,0.1857,0.2139,0.2143,0.2146,0.2264,0.2264,0.2264,0.2208,0.2206,0.2204,0.2203,0.2218,0.222,0.2222,0,0,0,0,0,0,0,0,0,0,0,0,0,0.196,0.1858,0.2139,0.2146,0.2149,0.2264,0.2264,0.2264,0.2208,0.2206,0.2204,0.2202,0.2217,0.222,0.2222,0.228,0,0,0.223,0.2231,0,0,0,0,0,0,0,0,0.1954,0.1968,0.2142,0.2146,0.215,0.2234,0.217,0.227,0.2208,0.2166,0.2203,0.2201,0.2228,0.2229,0.2232,0.2281,0.2281,0.2231,0.2232,0.2233,0.2234,0,0,0,0,0,0,0,0.1946,0.1963,0.217,0.2146,0.2151,0.2145,0.2155,0.2187,0.219,0.2169,0.217,0.2215,0.2226,0.223,0.2232,0.2282,0.223,0.2233,0.2234,0.2235,0.2324,0.2325,0,0,0,0,0,0,0.1972,0.1956,0.2166,0.2175,0.2066,0.2153,0.2164,0.2194,0.2192,0.2197,0.2216,0.2212,0.2226,0.2229,0.2233,0.2278,0.2233,0.2236,0.2237,0.2323,0.2324,0.2325,0,0,0,0,0,0,0.1965,0.1989,0.2162,0.2083,0.2107,0.2162,0.2195,0.2198,0.2201,0.2233,0.223,0.2218,0.2225,0.2229,0.2221,0.2278,0.2237,0.2239,0.2322,0.2323,0.2325,0.2383,0,0,0,0,0,0,0.1956,0.1985,0.1996,0.2085,0.2114,0.2218,0.22,0.2203,0.2241,0.2235,0.2235,0.2233,0.2224,0.2217,0.2224,0.2281,0.2241,0.2321,0.2323,0.2324,0.238,0.2386,0.2391,0,0,0,0,0,0.1945,0.1983,0.1995,0.2021,0.2133,0.2221,0.2231,0.2251,0.2243,0.2242,0.2219,0.2233,0.2233,0.2219,0.2227,0.2287,0.232,0.2322,0.2324,0.2377,0.2385,0.2391,0,0,0,0,0,0,0.1878,0.1986,0.2,0.2071,0.2136,0.2218,0.2241,0.226,0.2247,0.2239,0.2231,0.2229,0.2247,0.2252,0.2237,0.2313,0.2287,0.229,0.2325,0.2332,0.2337,0.23,0.2243,0,0,0,0,0,0.1873,0.1915,0.202,0.2074,0.211,0.2173,0.2209,0.2236,0.2261,0.2253,0.2253,0.2256,0.2268,0.2281,0.2284,0.233,0.232,0.2376,0.2381,0.2386,0.236,0.239,0.2396,0.2331,0.2331,0.2331,0,0,0.1865,0.1936,0.1957,0.2061,0.211,0.2161,0.2183,0.2257,0.2277,0.2262,0.2259,0.2271,0.2277,0.2308,0.2322,0.2319,0.2402,0.2388,0.2393,0.2363,0.2393,0.2399,0.2405,0.2332,0.2332,0.2332,0,0,0.189,0.1932,0.1975,0.2023,0.2127,0.2167,0.2191,0.2271,0.2272,0.2296,0.2288,0.2314,0.2335,0.2352,0.2364,0.2408,0.242,0.2436,0.2454,0.2486,0.2491,0.2495,0.2504,0.2509,0.2453,0.2454,0.2454,0,0.1854,0.1947,0.2001,0.2056,0.2094,0.2166,0.221,0.2237,0.2295,0.2298,0.2292,0.2333,0.2353,0.2397,0.2408,0.2425,0.2427,0.2433,0.2493,0.2497,0.2501,0.2508,0.2513,0.2457,0.2456,0.2456,0.2456,0,0.1925,0.1978,0.2014,0.2086,0.212,0.2185,0.2241,0.2261,0.2282,0.2312,0.2346,0.2371,0.2392,0.2436,0.2432,0.2493,0.2481,0.2489,0.2477,0.2511,0.2517,0.2521,0.2461,0.246,0.2459,0.2458,0,0,0.1884,0.2025,0.2031,0.206,0.2142,0.2181,0.2208,0.2258,0.2273,0.2322,0.234,0.2394,0.242,0.2433,0.2474,0.2515,0.2565,0.2515,0.2516,0.2523,0.2617,0.2696,0.2707,0.259,0.259,0.2591,0.2615,0,0.1911,0.2012,0.2065,0.2119,0.2171,0.2201,0.2209,0.2249,0.2281,0.2309,0.2366,0.2398,0.2421,0.2454,0.2497,0.2552,0.2574,0.2555,0.258,0.2579,0.2647,0.2715,0.2726,0.2757,0.2619,0.2619,0.262,0,0.1956,0.2023,0.2086,0.2141,0.2156,0.2176,0.2193,0.2217,0.2265,0.2285,0.2337,0.2377,0.2456,0.2463,0.2556,0.2544,0.2563,0.2598,0.26,0.2647,0.2666,0.2697,0.2768,0.26,0.2625,0.2624,0.2624,0,0.1923,0.2022,0.2066,0.2087,0.2159,0.2158,0.2179,0.2212,0.2221,0.2283,0.2317,0.2388,0.2452,0.2493,0.2587,0.2566,0.2678,0.2661,0.2733,0.2737,0.2735,0.274,0.2643,0.2678,0.2678,0.2678,0.2678,0,0.1935,0.1973,0.2055,0.2082,0.2094,0.2138,0.2141,0.2168,0.2209,0.2232,0.2312,0.2368,0.2463,0.2551,0.2588,0.2705,0.2683,0.2736,0.276,0.2759,0.2765,0.2608,0.254,0.2679,0.2679,0.2678,0.2678,0,0.1904,0.197,0.2015,0.2078,0.2089,0.2088,0.2114,0.2122,0.2178,0.2219,0.2243,0.2366,0.2502,0.2603,0.2698,0.2737,0.2773,0.284,0.2831,0.2856,0.2771,0.2708,0.2675,0.2662,0.2914,0.2916,0.2918,0,0.1903,0.193,0.1983,0.1988,0.2018,0.2032,0.2036,0.2087,0.2104,0.2221,0.2245,0.2404,0.2519,0.2728,0.2844,0.2951,0.2838,0.299,0.2955,0.2775,0.272,0.2657,0.2643,0.2964,0.2966,0.2967,0.2969,0,0.1884,0.1894,0.1929,0.1931,0.194,0.1949,0.1977,0.1985,0.2052,0.2119,0.2226,0.2339,0.2602,0.2748,0.2938,0.3023,0.2903,0.303,0.2843,0.2757,0.2681,0.2678,0.291,0.2985,0.2983,0.2982,0.2981,0.298,0.1854,0.184,0.1862,0.1857,0.1859,0.1856,0.1842,0.1894,0.1928,0.2001,0.2153,0.2288,0.2562,0.2866,0.2957,0.3051,0.3006,0.2954,0.2892,0.2842,0.283,0.3103,0.3217,0.3217,0.3216,0.3216,0.3216,0,0.179,0.1784,0.1781,0.1767,0.1728,0.1766,0.178,0.1757,0.1779,0.1901,0.2001,0.2238,0.2466,0.2698,0.2921,0.2864,0.286,0.2771,0.2615,0.2613,0.284,0.2839,0.2879,0.2879,0.2879,0.2879,0.2879,0.288,0.1754,0.173,0.1721,0.1643,0.1623,0.1552,0.1545,0.1549,0.16,0.1682,0.178,0.193,0.2228,0.2475,0.2567,0.2597,0.2431,0.2408,0.2333,0.238,0.2388,0.2396,0.2373,0.2314,0.2313,0.2105,0.2102,0.21]},{"header":{"parameterUnit":"m.s-1","parameterCategory":2,"la1":30.2991,"la2":30.254,"lo1":-89.0895,"lo2":-89.0444,"dy":0.0017,"dx":0.0017,"nx":28,"ny":28,"refTime":"2023-08-18T09:00:00:Z","depth":"0","parameterNumber":3,"parameterNumberName":"V-component_of_CURRENTS"},"data":[0,0,0,0,0,0,0,0,0,0,0,0,0,0,0,0,0,0,0,0,0,0,0,0,0,0,0,0,0,0,0,0,0,0,0,0,0,0,0,0,0,0,0,0,0,0,0,0,0,0,0,0,0,0,0,0,0,0,-0.021,-0.021,0,-0.0204,-0.0204,-0.0203,-0.0228,-0.0229,-0.023,-0.023,-0.0202,-0.0201,-0.0199,0,0,0,0,0,0,0,0,0,0,0,0,0,-0.0157,-0.0158,-0.021,-0.021,-0.021,-0.0204,-0.0204,-0.0203,-0.0228,-0.0229,-0.023,-0.0231,-0.0203,-0.0201,-0.0199,0,0,0,0,0,0,0,0,0,0,0,0,0,-0.0167,-0.0159,-0.021,-0.0223,-0.0224,-0.0204,-0.0204,-0.0203,-0.0227,-0.0229,-0.023,-0.0231,-0.0204,-0.0201,-0.0199,-0.0157,0,0,-0.0192,-0.0191,0,0,0,0,0,0,0,0,-0.0166,-0.0169,-0.0221,-0.0222,-0.0224,-0.022,-0.0175,-0.0187,-0.0227,-0.0224,-0.023,-0.0232,-0.0206,-0.0204,-0.0197,-0.0156,-0.0155,-0.0191,-0.019,-0.0189,-0.0188,0,0,0,0,0,0,0,-0.0166,-0.0168,-0.0206,-0.0221,-0.0223,-0.02,-0.0203,-0.0177,-0.0206,-0.0225,-0.0227,-0.0229,-0.0207,-0.0199,-0.0197,-0.0154,-0.0192,-0.0189,-0.0188,-0.0187,-0.0156,-0.0157,0,0,0,0,0,0,-0.0174,-0.0168,-0.0206,-0.0206,-0.02,-0.02,-0.0204,-0.0218,-0.0207,-0.0207,-0.0227,-0.023,-0.0203,-0.02,-0.0196,-0.0202,-0.0189,-0.0187,-0.0185,-0.0156,-0.0156,-0.0157,0,0,0,0,0,0,-0.0173,-0.0177,-0.0206,-0.0187,-0.019,-0.0201,-0.0215,-0.0217,-0.021,-0.021,-0.0209,-0.022,-0.0204,-0.0199,-0.0186,-0.0199,-0.0186,-0.0184,-0.0155,-0.0156,-0.0157,-0.0177,0,0,0,0,0,0,-0.0171,-0.0177,-0.0185,-0.0189,-0.0191,-0.0197,-0.0214,-0.0216,-0.0211,-0.0213,-0.0202,-0.0202,-0.0205,-0.019,-0.0184,-0.0195,-0.0182,-0.0154,-0.0155,-0.0156,-0.0176,-0.0179,-0.0181,0,0,0,0,0,-0.017,-0.0167,-0.0186,-0.019,-0.0204,-0.0197,-0.0195,-0.0205,-0.0209,-0.0204,-0.0206,-0.0202,-0.0194,-0.0187,-0.018,-0.0192,-0.0154,-0.0155,-0.0156,-0.0174,-0.0178,-0.0181,0,0,0,0,0,0,-0.0149,-0.017,-0.019,-0.0197,-0.0202,-0.0202,-0.0194,-0.0197,-0.0191,-0.0191,-0.0193,-0.0192,-0.0191,-0.0182,-0.0176,-0.0189,-0.0178,-0.0178,-0.0195,-0.0198,-0.0201,-0.016,-0.018,0,0,0,0,0,-0.015,-0.0147,-0.0173,-0.0172,-0.0181,-0.0186,-0.0182,-0.0185,-0.0183,-0.0182,-0.0183,-0.0184,-0.0189,-0.0186,-0.0183,-0.0171,-0.0165,-0.0181,-0.0183,-0.0186,-0.0149,-0.0173,-0.0174,-0.0162,-0.0162,-0.0162,0,0,-0.0138,-0.0148,-0.0147,-0.0166,-0.0172,-0.0167,-0.0186,-0.0175,-0.0167,-0.0176,-0.0167,-0.0184,-0.0187,-0.0194,-0.0193,-0.0188,-0.0191,-0.0187,-0.0189,-0.0151,-0.0174,-0.0175,-0.0176,-0.0162,-0.0162,-0.0162,0,0,-0.0101,-0.0131,-0.0119,-0.0122,-0.0129,-0.0138,-0.0135,-0.0143,-0.0151,-0.0144,-0.0163,-0.0183,-0.0177,-0.0195,-0.02,-0.0206,-0.0204,-0.0218,-0.0195,-0.0219,-0.022,-0.022,-0.0234,-0.0235,-0.0221,-0.0221,-0.0221,0,-0.0085,-0.0088,-0.011,-0.0099,-0.0099,-0.0125,-0.0113,-0.0117,-0.0117,-0.0118,-0.0145,-0.016,-0.0178,-0.0181,-0.0201,-0.0211,-0.0216,-0.0185,-0.0222,-0.0222,-0.0222,-0.0236,-0.0237,-0.0222,-0.0222,-0.0222,-0.0221,0,-0.0048,-0.0046,-0.0037,-0.0041,-0.0041,-0.003,-0.0053,-0.0053,-0.0076,-0.0086,-0.0102,-0.0139,-0.0146,-0.0179,-0.019,-0.0203,-0.0206,-0.0224,-0.0211,-0.0224,-0.0238,-0.0239,-0.0223,-0.0223,-0.0223,-0.0222,0,0,-0.0021,-0.0014,-0.0012,-0.0009,-0.0013,-0.0011,-0.0,-0.0009,0.0003,-0.0033,-0.0027,-0.0078,-0.0102,-0.0108,-0.0144,-0.0173,-0.0209,-0.0195,-0.0196,-0.0201,-0.0252,-0.0244,-0.0245,-0.0238,-0.0238,-0.0238,-0.0269,0,0.001,0.0035,0.0033,0.0059,0.0062,0.0048,0.006,0.0057,0.0039,0.0038,-0.0014,-0.0026,-0.0075,-0.0091,-0.0126,-0.0175,-0.0207,-0.0197,-0.024,-0.024,-0.0228,-0.0244,-0.0217,-0.024,-0.0269,-0.0269,-0.0269,0,0.0043,0.0052,0.0075,0.0094,0.0093,0.0107,0.0113,0.0124,0.0121,0.011,0.0094,0.006,0.0024,-0.0031,-0.0105,-0.0095,-0.0162,-0.0213,-0.0216,-0.0189,-0.0233,-0.0228,-0.024,-0.0281,-0.0271,-0.027,-0.027,0,0.006,0.0084,0.0097,0.0104,0.0119,0.013,0.0134,0.0143,0.0156,0.0159,0.0172,0.0127,0.0105,0.0025,-0.0074,-0.0092,-0.0155,-0.0202,-0.0257,-0.0257,-0.0226,-0.0224,-0.0269,-0.0256,-0.0256,-0.0256,-0.0256,0,0.0091,0.0104,0.0104,0.0115,0.0138,0.0143,0.0172,0.0185,0.0207,0.0237,0.0208,0.0226,0.0117,0.0067,-0.0037,-0.013,-0.013,-0.0232,-0.0259,-0.0236,-0.0234,-0.026,-0.0306,-0.0257,-0.0257,-0.0257,-0.0256,0,0.011,0.0113,0.0134,0.0145,0.0151,0.0165,0.0196,0.0223,0.0247,0.0291,0.0295,0.0296,0.0248,0.0142,0.0018,-0.0075,-0.022,-0.0218,-0.0173,-0.0194,-0.0283,-0.0331,-0.0448,-0.0484,-0.0279,-0.0279,-0.0279,0,0.0119,0.0134,0.0149,0.0166,0.0171,0.019,0.0216,0.024,0.0273,0.0337,0.0364,0.0351,0.0361,0.0213,0.0045,-0.0111,-0.0208,-0.0199,-0.0234,-0.0263,-0.0338,-0.0425,-0.0453,-0.0216,-0.0215,-0.0215,-0.0214,0,0.0144,0.015,0.0162,0.0192,0.0216,0.0249,0.0282,0.0319,0.0362,0.0411,0.0482,0.0503,0.0392,0.0298,0.0103,-0.0039,-0.0241,-0.0194,-0.0241,-0.0291,-0.0371,-0.0426,-0.0217,-0.021,-0.021,-0.0211,-0.0211,-0.0211,0.0153,0.0172,0.0195,0.0224,0.0261,0.0322,0.0366,0.0413,0.0485,0.0591,0.0581,0.0665,0.0532,0.0288,0.0108,-0.0165,-0.0233,-0.0243,-0.03,-0.0386,-0.0415,-0.0183,-0.0199,-0.0199,-0.02,-0.02,-0.02,0,0.0155,0.019,0.023,0.0279,0.0338,0.0348,0.0425,0.0488,0.059,0.0691,0.0759,0.0787,0.0593,0.0364,-0.0007,-0.0211,-0.0345,-0.0321,-0.0425,-0.0449,-0.0241,-0.0227,-0.0228,-0.0228,-0.0228,-0.0228,-0.0228,-0.0228,0.016,0.0203,0.0236,0.0341,0.0387,0.0476,0.0533,0.0631,0.0722,0.0886,0.0981,0.1041,0.0933,0.0258,-0.0176,-0.0306,-0.0474,-0.053,-0.0606,-0.043,-0.0426,-0.0423,-0.0419,-0.046,-0.046,-0.0793,-0.0796,-0.0798]}],[{"header":{"parameterUnit":"m.s-1","parameterCategory":2,"la1":30.2991,"la2":30.254,"lo1":-89.0895,"lo2":-89.0444,"dy":0.0017,"dx":0.0017,"nx":28,"ny":28,"refTime":"2023-08-18T09:00:00:Z","depth":"2","parameterNumber":2,"parameterNumberName":"U-component_of_CURRENTS"},"data":[0,0,0,0,0,0,0,0,0,0,0,0,0,0,0,0,0,0,0,0,0,0,0,0,0,0,0,0,0,0,0,0,0,0,0,0,0,0,0,0,0,0,0,0,0,0,0,0,0,0,0,0,0,0,0,0,0,0,0.0068,0.0063,0,-0.0073,-0.0071,-0.0069,0.0278,0.0285,0.0292,0.0298,0.0238,0.023,0.0222,0,0,0,0,0,0,0,0,0,0,0,0,0,0.0173,0.0177,0.0068,0.0062,0.0057,-0.0073,-0.0071,-0.0069,0.0277,0.0285,0.0293,0.0301,0.024,0.0231,0.0221,0,0,0,0,0,0,0,0,0,0,0,0,0,0.0133,0.0178,0.0069,0.0181,0.0186,-0.0074,-0.0071,-0.0068,0.0275,0.0285,0.0296,0.0305,0.0243,0.0232,0.022,-0.0061,0,0,0.0183,0.0178,0,0,0,0,0,0,0,0,0.0136,0.0135,0.017,0.0172,0.0177,0.0092,-0.0059,-0.0077,0.0272,0.0288,0.0298,0.031,0.0159,0.0155,0.0168,-0.0064,-0.0066,0.0182,0.0175,0.017,0.0166,0,0,0,0,0,0,0,0.0139,0.0139,0.0058,0.0162,0.0165,0.0074,0.009,-0.0059,0.0204,0.0288,0.0301,0.0211,0.017,0.0179,0.0168,-0.0067,0.0182,0.0172,0.0164,0.016,-0.0027,-0.0024,0,0,0,0,0,0,0.0079,0.0144,0.0061,0.0049,0.0131,0.0063,0.0082,0.0145,0.0204,0.0209,0.0202,0.0227,0.0194,0.0182,0.0167,0.0302,0.017,0.0158,0.0152,-0.0029,-0.0026,-0.0024,0,0,0,0,0,0,0.0085,0.008,0.0066,0.0048,0.0035,0.005,0.0117,0.0135,0.024,0.013,0.015,0.0293,0.0202,0.0184,0.0312,0.0284,0.0153,0.0142,-0.0031,-0.0028,-0.0025,0.027,0,0,0,0,0,0,0.0092,0.0087,0.0176,0.005,0.0032,0.0014,0.0102,0.0124,0.0139,0.0176,0.0207,0.021,0.0209,0.0332,0.03,0.0266,0.0133,-0.0034,-0.003,-0.0026,0.0257,0.0283,0.0305,0,0,0,0,0,0.0099,0.0078,0.0186,0.0173,0.0141,0.0009,0.0002,0.0066,0.0134,0.0203,0.0351,0.0215,0.033,0.0329,0.0289,0.025,-0.0036,-0.0031,-0.0026,0.0247,0.0278,0.0304,0,0,0,0,0,0,0.0144,0.0103,0.022,0.0203,0.018,0.0055,0.0028,0.0074,0.0224,0.0315,0.029,0.0304,0.0396,0.0273,0.027,0.0208,0.0093,0.0091,0.0313,0.0341,0.0364,0.0268,0.0123,0,0,0,0,0,0.0191,0.0212,0.0164,0.0162,0.0138,0.0116,0.008,0.0157,0.0189,0.0271,0.0316,0.0339,0.034,0.0334,0.033,0.0266,0.0213,0.0197,0.0222,0.0243,0.0139,0.0232,0.0256,-0.0007,-0.0007,-0.0007,0,0,0.0191,0.0161,0.0184,0.0175,0.0149,0.013,0.0139,0.0109,0.0178,0.0212,0.0389,0.0442,0.0364,0.0424,0.0425,0.0338,0.0304,0.0249,0.0269,0.015,0.024,0.0266,0.0289,-0.0003,-0.0004,-0.0005,0,0,0.0136,0.0197,0.0228,0.0218,0.0193,0.0147,0.0154,0.0162,0.0287,0.0384,0.0493,0.06,0.0511,0.0564,0.0522,0.0617,0.0467,0.0549,0.0539,0.0638,0.0661,0.0679,0.0718,0.0738,0.0517,0.0517,0.0518,0,0.0194,0.0216,0.0198,0.0216,0.0182,0.0163,0.0192,0.0231,0.034,0.0429,0.0482,0.0537,0.0553,0.0571,0.0672,0.066,0.0673,0.0462,0.0675,0.0691,0.0705,0.074,0.0757,0.0532,0.0531,0.0529,0.0528,0,0.0188,0.0227,0.0172,0.0247,0.0239,0.0198,0.0232,0.0336,0.0405,0.0466,0.0592,0.0672,0.0697,0.0698,0.0704,0.0772,0.0744,0.0753,0.0617,0.0751,0.0778,0.0791,0.0553,0.0548,0.0544,0.054,0,0,0.0251,0.0212,0.0211,0.0274,0.0266,0.0244,0.0321,0.0374,0.0416,0.0557,0.0612,0.0702,0.077,0.0727,0.0767,0.0797,0.1008,0.0803,0.0802,0.0861,0.1195,0.1132,0.1139,0.1092,0.1094,0.1096,0.1203,0,0.0283,0.0296,0.0282,0.0309,0.0306,0.0335,0.0381,0.0482,0.0504,0.0574,0.0643,0.0709,0.076,0.0804,0.0876,0.0975,0.104,0.0971,0.1026,0.1024,0.0973,0.1152,0.0985,0.1061,0.1215,0.1217,0.1218,0,0.0355,0.0303,0.0359,0.0365,0.0379,0.0428,0.0473,0.0538,0.0598,0.063,0.0683,0.0721,0.0838,0.0838,0.1031,0.1,0.1104,0.1135,0.1143,0.0946,0.0983,0.0931,0.1077,0.1239,0.1237,0.1236,0.1234,0,0.0415,0.0391,0.0424,0.0431,0.0424,0.0523,0.0556,0.0613,0.0686,0.0692,0.0693,0.0788,0.0877,0.0989,0.1146,0.112,0.1295,0.1298,0.1306,0.1302,0.1077,0.1048,0.1405,0.1405,0.1405,0.1404,0.1404,0,0.0448,0.0473,0.0469,0.048,0.0578,0.0601,0.0699,0.0734,0.0747,0.0809,0.0786,0.0791,0.0928,0.1052,0.1153,0.1289,0.1368,0.1283,0.1331,0.1181,0.1162,0.1206,0.1181,0.1408,0.1407,0.1407,0.1406,0,0.0523,0.0527,0.0559,0.0563,0.0636,0.0737,0.0863,0.0848,0.0865,0.0915,0.0944,0.0918,0.1018,0.1113,0.1278,0.133,0.1427,0.1458,0.1237,0.1254,0.1343,0.1333,0.1432,0.1431,0.143,0.1429,0.1428,0,0.0567,0.0563,0.0652,0.0725,0.0757,0.0882,0.0939,0.0976,0.0954,0.0988,0.1003,0.1062,0.108,0.1228,0.1264,0.1374,0.1437,0.1291,0.1185,0.1312,0.135,0.134,0.1331,0.1041,0.1037,0.1034,0.1031,0,0.0555,0.0611,0.0631,0.0757,0.0876,0.0944,0.1043,0.1064,0.107,0.1101,0.1127,0.1144,0.1157,0.1127,0.1202,0.1228,0.1242,0.1225,0.1484,0.1046,0.0949,0.0984,0.0987,0.1003,0.1006,0.1008,0.101,0.1011,0.0588,0.0594,0.0651,0.0807,0.0916,0.0984,0.1041,0.1049,0.112,0.1137,0.1165,0.1129,0.1008,0.0988,0.1047,0.1068,0.1084,0.103,0.1038,0.105,0.0972,0.0878,0.0901,0.0903,0.0905,0.0907,0.0908,0,0.0586,0.061,0.0677,0.0846,0.0925,0.101,0.1063,0.104,0.1102,0.1112,0.1141,0.0924,0.087,0.0847,0.0836,0.0842,0.0831,0.0817,0.078,0.0802,0.0822,0.0735,0.0601,0.0602,0.0603,0.0604,0,0,0.0611,0.0642,0.0656,0.0851,0.0943,0.0985,0.1012,0.1014,0.1004,0.0947,0.092,0.0838,0.0794,0.0696,0.0638,0.0671,0.0758,0.0645,0.0857,0.0831,0.0855,0.0872,0.075,0,0,0,0,0]},{"header":{"parameterUnit":"m.s-1","parameterCategory":2,"la1":30.2991,"la2":30.254,"lo1":-89.0895,"lo2":-89.0444,"dy":0.0017,"dx":0.0017,"nx":28,"ny":28,"refTime":"2023-08-18T09:00:00:Z","depth":"2","parameterNumber":3,"parameterNumberName":"V-component_of_CURRENTS"},"data":[0,0,0,0,0,0,0,0,0,0,0,0,0,0,0,0,0,0,0,0,0,0,0,0,0,0,0,0,0,0,0,0,0,0,0,0,0,0,0,0,0,0,0,0,0,0,0,0,0,0,0,0,0,0,0,0,0,0,-0.015,-0.0149,0,-0.0152,-0.0154,-0.0155,-0.022,-0.022,-0.022,-0.0219,-0.0163,-0.0161,-0.016,0,0,0,0,0,0,0,0,0,0,0,0,0,-0.0177,-0.0178,-0.015,-0.0148,-0.0147,-0.0152,-0.0154,-0.0156,-0.022,-0.022,-0.0219,-0.0219,-0.0163,-0.0161,-0.016,0,0,0,0,0,0,0,0,0,0,0,0,0,-0.0189,-0.0179,-0.015,-0.0166,-0.0166,-0.0152,-0.0154,-0.0156,-0.022,-0.022,-0.0219,-0.0219,-0.0164,-0.0162,-0.0159,-0.0147,0,0,-0.0153,-0.0152,0,0,0,0,0,0,0,0,-0.0188,-0.0191,-0.0165,-0.0164,-0.0164,-0.0169,-0.0141,-0.0144,-0.022,-0.0219,-0.0219,-0.0219,-0.0147,-0.0146,-0.0174,-0.0145,-0.0142,-0.0152,-0.0151,-0.015,-0.015,0,0,0,0,0,0,0,-0.0188,-0.019,-0.017,-0.0163,-0.0162,-0.0162,-0.0166,-0.0144,-0.0197,-0.0219,-0.0219,-0.0189,-0.0149,-0.0177,-0.0173,-0.0141,-0.0153,-0.0151,-0.0149,-0.0148,-0.0088,-0.0087,0,0,0,0,0,0,-0.0151,-0.019,-0.017,-0.0168,-0.0155,-0.0161,-0.0166,-0.0183,-0.0198,-0.0196,-0.0189,-0.0192,-0.018,-0.0176,-0.0171,-0.0178,-0.015,-0.0148,-0.0147,-0.0088,-0.0088,-0.0087,0,0,0,0,0,0,-0.0153,-0.0152,-0.0169,-0.0161,-0.0161,-0.0159,-0.0178,-0.0182,-0.0204,-0.0173,-0.0173,-0.0202,-0.018,-0.0174,-0.0155,-0.0175,-0.0147,-0.0145,-0.0088,-0.0088,-0.0087,-0.0177,0,0,0,0,0,0,-0.0155,-0.0154,-0.0158,-0.016,-0.0159,-0.0136,-0.0176,-0.0182,-0.0177,-0.0181,-0.0184,-0.018,-0.018,-0.0159,-0.0153,-0.0171,-0.0143,-0.0089,-0.0088,-0.0087,-0.0174,-0.018,-0.0184,0,0,0,0,0,-0.0157,-0.0154,-0.0161,-0.0156,-0.0167,-0.0132,-0.0134,-0.0144,-0.0177,-0.0171,-0.0192,-0.0179,-0.0151,-0.0157,-0.015,-0.0168,-0.0089,-0.0088,-0.0088,-0.0172,-0.0179,-0.0184,0,0,0,0,0,0,-0.016,-0.0158,-0.0166,-0.0163,-0.0133,-0.0135,-0.0131,-0.014,-0.016,-0.0181,-0.0177,-0.0173,-0.0176,-0.0141,-0.0148,-0.0144,-0.0116,-0.0114,-0.0182,-0.0188,-0.0193,-0.0161,-0.0142,0,0,0,0,0,-0.016,-0.0161,-0.0146,-0.013,-0.0133,-0.0138,-0.0129,-0.0136,-0.014,-0.0153,-0.0155,-0.0158,-0.0169,-0.0152,-0.0153,-0.0134,-0.0118,-0.0136,-0.0141,-0.0146,-0.0112,-0.0134,-0.0139,-0.0085,-0.0085,-0.0085,0,0,-0.0155,-0.0142,-0.0147,-0.0129,-0.0133,-0.013,-0.014,-0.0127,-0.0129,-0.0138,-0.0161,-0.0181,-0.0171,-0.0181,-0.0174,-0.015,-0.0156,-0.0145,-0.015,-0.0112,-0.0134,-0.014,-0.0145,-0.0085,-0.0085,-0.0085,0,0,-0.0116,-0.0145,-0.0133,-0.0126,-0.0101,-0.0112,-0.0103,-0.0114,-0.0133,-0.0134,-0.0171,-0.0189,-0.0176,-0.0193,-0.0195,-0.0208,-0.0197,-0.0209,-0.0193,-0.0218,-0.0223,-0.0227,-0.0237,-0.0241,-0.0194,-0.0194,-0.0195,0,-0.0107,-0.0102,-0.0113,-0.0099,-0.0094,-0.0106,-0.01,-0.0118,-0.0115,-0.0125,-0.0136,-0.0182,-0.0183,-0.0208,-0.0224,-0.0222,-0.0226,-0.0186,-0.0228,-0.0231,-0.0234,-0.0243,-0.0246,-0.0199,-0.0198,-0.0198,-0.0197,0,-0.0077,-0.0069,-0.0063,-0.007,-0.0064,-0.0057,-0.0075,-0.0085,-0.0114,-0.0129,-0.0162,-0.019,-0.0205,-0.0225,-0.0228,-0.0253,-0.025,-0.0255,-0.0223,-0.0246,-0.0252,-0.0255,-0.0205,-0.0203,-0.0202,-0.0201,0,0,-0.0073,-0.0049,-0.0053,-0.0044,-0.006,-0.0051,-0.0066,-0.0074,-0.0082,-0.0117,-0.0135,-0.0184,-0.0213,-0.0213,-0.0243,-0.0251,-0.0301,-0.0253,-0.0253,-0.0279,-0.0349,-0.0321,-0.0321,-0.033,-0.033,-0.033,-0.0356,0,-0.0048,-0.0015,-0.0019,-0.0003,0.0002,-0.0026,-0.0021,-0.0036,-0.0065,-0.0087,-0.0142,-0.017,-0.0207,-0.0226,-0.0255,-0.0286,-0.0305,-0.0291,-0.0304,-0.0303,-0.0292,-0.0322,-0.0294,-0.0311,-0.0357,-0.0358,-0.0358,0,-0.0035,-0.0007,0.0011,0.0042,0.0034,0.0035,0.0013,0.0015,-0.0022,-0.0031,-0.0088,-0.014,-0.0185,-0.0209,-0.0275,-0.0269,-0.0304,-0.0325,-0.0327,-0.0258,-0.0279,-0.0288,-0.0313,-0.0361,-0.0361,-0.0361,-0.0361,0,-0.003,0.0007,0.0023,0.002,0.0046,0.0045,0.0042,0.0023,0.0032,-0.0012,-0.0009,-0.0095,-0.0121,-0.0191,-0.0258,-0.027,-0.0316,-0.0344,-0.0352,-0.035,-0.0298,-0.0291,-0.0379,-0.0379,-0.0379,-0.0379,-0.0379,0,-0.0014,0.001,0.0028,0.0031,0.0063,0.006,0.0073,0.0076,0.0073,0.0085,0.001,0.0007,-0.0114,-0.0175,-0.0246,-0.03,-0.0318,-0.0337,-0.0353,-0.0329,-0.0325,-0.0333,-0.0327,-0.038,-0.038,-0.038,-0.038,0,0.0011,0.0017,0.0049,0.0065,0.007,0.0083,0.0105,0.0129,0.0133,0.0141,0.0132,0.0085,0.0015,-0.0105,-0.0201,-0.0258,-0.0325,-0.0339,-0.0295,-0.0304,-0.0348,-0.0346,-0.0353,-0.0353,-0.0352,-0.0351,-0.0351,0,0.003,0.005,0.0059,0.0079,0.0088,0.0108,0.0142,0.0157,0.0175,0.0194,0.0204,0.0146,0.0138,0.0011,-0.0119,-0.0236,-0.0299,-0.0291,-0.0301,-0.0328,-0.0344,-0.0343,-0.0343,-0.0283,-0.0282,-0.0281,-0.028,0,0.0079,0.0071,0.0086,0.0121,0.0147,0.0191,0.0216,0.0248,0.0267,0.0309,0.0356,0.0363,0.0244,0.0125,-0.0045,-0.0115,-0.0274,-0.0275,-0.0325,-0.0285,-0.0262,-0.0277,-0.0279,-0.0273,-0.0274,-0.0274,-0.0275,-0.0275,0.01,0.0127,0.0134,0.0174,0.0214,0.0276,0.0318,0.0362,0.0432,0.0497,0.0486,0.0508,0.0271,0.0091,-0.0044,-0.0171,-0.0174,-0.0254,-0.0257,-0.0261,-0.0239,-0.0215,-0.0213,-0.0214,-0.0214,-0.0214,-0.0214,0,0.0132,0.0162,0.0199,0.0246,0.0308,0.0317,0.0385,0.0445,0.0548,0.0583,0.0658,0.0463,0.0343,0.011,-0.0048,-0.0155,-0.015,-0.0212,-0.0223,-0.0229,-0.0234,-0.0212,-0.0179,-0.0179,-0.018,-0.018,0,0,0.0147,0.0195,0.0224,0.0321,0.0369,0.0458,0.0508,0.0606,0.0643,0.0694,0.0674,0.0633,0.034,0.0162,-0.001,-0.0081,-0.0106,-0.007,-0.0082,-0.0077,-0.008,-0.0239,-0.0209,0,0,0,0,0]}],[{"header":{"parameterUnit":"m.s-1","parameterCategory":2,"la1":30.2991,"la2":30.254,"lo1":-89.0895,"lo2":-89.0444,"dy":0.0017,"dx":0.0017,"nx":28,"ny":28,"refTime":"2023-08-18T09:00:00:Z","depth":"4","parameterNumber":2,"parameterNumberName":"U-component_of_CURRENTS"},"data":[0,0,0,0,0,0,0,0,0,0,0,0,0,0,0,0,0,0,0,0,0,0,0,0,0,0,0,0,0,0,0,0,0,0,0,0,0,0,0,0,0,0,0,0,0,0,0,0,0,0,0,0,0,0,0,0,0,0,-0.0479,-0.0479,0,-0.0538,-0.0539,-0.054,-0.0607,-0.0607,-0.0608,-0.0608,-0.0689,-0.0691,-0.0692,0,0,0,0,0,0,0,0,0,0,0,0,0,-0.0418,-0.0419,-0.0479,-0.0479,-0.0479,-0.0537,-0.0539,-0.054,-0.0607,-0.0607,-0.0608,-0.0608,-0.0689,-0.0691,-0.0693,0,0,0,0,0,0,0,0,0,0,0,0,0,-0.0463,-0.042,-0.0478,-0.0515,-0.0519,-0.0537,-0.0539,-0.0541,-0.0607,-0.0607,-0.0608,-0.0609,-0.0688,-0.069,-0.0693,-0.0694,0,0,-0.0701,-0.0702,0,0,0,0,0,0,0,0,-0.046,-0.0466,-0.051,-0.0513,-0.0517,-0.0561,-0.0547,-0.0591,-0.0606,-0.0579,-0.0608,-0.0609,-0.0644,-0.065,-0.0667,-0.0697,-0.0701,-0.0701,-0.0702,-0.0703,-0.0704,0,0,0,0,0,0,0,-0.0457,-0.0463,-0.0508,-0.051,-0.0514,-0.0527,-0.0535,-0.0556,-0.0611,-0.0581,-0.0585,-0.0583,-0.0647,-0.0665,-0.067,-0.0702,-0.0701,-0.0703,-0.0705,-0.0706,-0.0817,-0.0818,0,0,0,0,0,0,-0.0438,-0.046,-0.0506,-0.0509,-0.0483,-0.0527,-0.0536,-0.055,-0.0611,-0.0619,-0.0582,-0.0586,-0.066,-0.0667,-0.0673,-0.0763,-0.0703,-0.0706,-0.0707,-0.0815,-0.0817,-0.0819,0,0,0,0,0,0,-0.0437,-0.0443,-0.0503,-0.048,-0.0488,-0.0526,-0.0543,-0.0551,-0.0585,-0.061,-0.062,-0.0608,-0.0661,-0.0669,-0.0711,-0.0763,-0.0707,-0.0709,-0.0814,-0.0816,-0.0818,-0.0887,0,0,0,0,0,0,-0.0436,-0.0442,-0.046,-0.048,-0.0489,-0.0518,-0.0542,-0.0551,-0.0578,-0.0584,-0.0635,-0.0642,-0.0662,-0.0707,-0.0713,-0.0765,-0.0711,-0.0812,-0.0815,-0.0817,-0.0883,-0.0892,-0.0899,0,0,0,0,0,-0.0434,-0.0448,-0.0461,-0.0466,-0.0508,-0.0517,-0.0524,-0.0556,-0.0579,-0.0591,-0.0634,-0.0642,-0.0729,-0.071,-0.0717,-0.0771,-0.0811,-0.0814,-0.0817,-0.088,-0.089,-0.0899,0,0,0,0,0,0,-0.0427,-0.0456,-0.047,-0.0493,-0.0504,-0.0526,-0.0542,-0.0562,-0.0606,-0.0628,-0.0653,-0.0663,-0.0723,-0.0727,-0.0705,-0.0809,-0.0774,-0.0779,-0.0819,-0.0829,-0.0837,-0.0855,-0.0713,0,0,0,0,0,-0.0431,-0.0459,-0.0472,-0.0492,-0.0496,-0.0522,-0.0535,-0.0562,-0.0592,-0.0614,-0.0643,-0.0688,-0.0739,-0.0766,-0.0798,-0.0847,-0.0829,-0.0887,-0.0895,-0.0902,-0.0921,-0.0957,-0.097,-0.0829,-0.0829,-0.0829,0,0,-0.0432,-0.0453,-0.0468,-0.0493,-0.0508,-0.0513,-0.0534,-0.0562,-0.0591,-0.0615,-0.0667,-0.071,-0.0754,-0.082,-0.0848,-0.0834,-0.0918,-0.0906,-0.0911,-0.0927,-0.0961,-0.0975,-0.0987,-0.0831,-0.0831,-0.0831,0,0,-0.0433,-0.0466,-0.0481,-0.0496,-0.0521,-0.0527,-0.0533,-0.0564,-0.0607,-0.0663,-0.0696,-0.0761,-0.0825,-0.087,-0.0904,-0.0965,-0.0954,-0.0988,-0.1053,-0.1088,-0.11,-0.111,-0.1043,-0.1047,-0.0998,-0.0998,-0.0998,0,-0.0433,-0.0456,-0.0483,-0.0497,-0.0506,-0.0528,-0.0535,-0.0576,-0.0623,-0.0652,-0.069,-0.0817,-0.0853,-0.0943,-0.0992,-0.0986,-0.0979,-0.1016,-0.1099,-0.1109,-0.1119,-0.1048,-0.1052,-0.1002,-0.1002,-0.1001,-0.1001,0,-0.0438,-0.0462,-0.0468,-0.0492,-0.0504,-0.0519,-0.0556,-0.0589,-0.0644,-0.068,-0.0792,-0.0877,-0.0964,-0.0991,-0.1032,-0.1129,-0.1087,-0.1098,-0.1076,-0.1138,-0.1057,-0.106,-0.1007,-0.1006,-0.1005,-0.1004,0,0,-0.0424,-0.0462,-0.0467,-0.0483,-0.0511,-0.0521,-0.0561,-0.0591,-0.0626,-0.0732,-0.079,-0.0948,-0.1024,-0.107,-0.1136,-0.1188,-0.1243,-0.1204,-0.1204,-0.1136,-0.1265,-0.1066,-0.1048,-0.1293,-0.1296,-0.1298,-0.1158,0,-0.0416,-0.0429,-0.0457,-0.0474,-0.0478,-0.0519,-0.0563,-0.0609,-0.0655,-0.0709,-0.0841,-0.0944,-0.1048,-0.1139,-0.1215,-0.1242,-0.1266,-0.1275,-0.1216,-0.1212,-0.1031,-0.1052,-0.1306,-0.1159,-0.116,-0.116,-0.1161,0,-0.0409,-0.0421,-0.0433,-0.0484,-0.0494,-0.0532,-0.0579,-0.0623,-0.0691,-0.0745,-0.0867,-0.0959,-0.1105,-0.1175,-0.1288,-0.1304,-0.1311,-0.1309,-0.1303,-0.1106,-0.1022,-0.1101,-0.1165,-0.1165,-0.1164,-0.1164,-0.1164,0,-0.0373,-0.0407,-0.0416,-0.0434,-0.0491,-0.0545,-0.0591,-0.065,-0.0681,-0.0784,-0.0808,-0.0986,-0.108,-0.1181,-0.1212,-0.1295,-0.1222,-0.1316,-0.1113,-0.1094,-0.1285,-0.1276,-0.136,-0.136,-0.1361,-0.1361,-0.1361,0,-0.0354,-0.0367,-0.0426,-0.044,-0.0495,-0.0563,-0.0619,-0.0673,-0.0735,-0.0727,-0.0876,-0.0884,-0.1106,-0.1089,-0.1156,-0.109,-0.1182,-0.1115,-0.1065,-0.1304,-0.13,-0.1281,-0.1274,-0.1356,-0.1357,-0.1358,-0.1359,0,-0.0328,-0.035,-0.0375,-0.0453,-0.0483,-0.0546,-0.0628,-0.0642,-0.0729,-0.0712,-0.0767,-0.0825,-0.0831,-0.0893,-0.0945,-0.0966,-0.0937,-0.0862,-0.0992,-0.0951,-0.0812,-0.081,-0.0729,-0.0721,-0.0715,-0.0709,-0.0704,0,-0.0318,-0.0324,-0.0375,-0.039,-0.0445,-0.0525,-0.0552,-0.0642,-0.0619,-0.0628,-0.0587,-0.0607,-0.0635,-0.05,-0.0609,-0.0628,-0.0646,-0.0615,-0.0883,-0.0797,-0.0758,-0.0766,-0.0773,-0.0694,-0.0692,-0.0691,-0.0689,0,-0.0301,-0.032,-0.0335,-0.036,-0.0402,-0.0403,-0.0449,-0.0431,-0.0477,-0.0532,-0.042,-0.0427,-0.0338,-0.0389,-0.033,-0.0372,-0.0667,-0.055,-0.0571,-0.0824,-0.0754,-0.0723,-0.0738,-0.0666,-0.0669,-0.0672,-0.0673,0,-0.0291,-0.0291,-0.03,-0.0333,-0.0338,-0.0295,-0.0328,-0.029,-0.0295,-0.032,-0.0235,-0.0231,-0.026,-0.0235,-0.018,-0.0195,-0.0319,-0.0408,-0.0439,-0.0465,-0.0457,-0.0335,-0.0066,0,0,0,0,0,-0.0274,-0.0254,-0.0262,-0.0263,-0.0251,-0.0254,-0.0239,-0.0257,-0.0277,-0.0175,-0.0227,-0.0141,-0.0117,-0.0094,-0.0085,-0.0131,-0.0334,-0.0121,-0.0457,-0.054,-0.0566,-0.0588,0,0,0,0,0,0,-0.0259,-0.0247,-0.0246,-0.0195,-0.0172,-0.0139,-0.0127,-0.0135,-0.0081,-0.0111,-0.008,-0.0127,-0.0092,-0.0117,-0.0076,-0.0083,-0.0292,-0.0131,-0.013,-0.0525,-0.0549,-0.057,-0.0602,0,0,0,0,0]},{"header":{"parameterUnit":"m.s-1","parameterCategory":2,"la1":30.2991,"la2":30.254,"lo1":-89.0895,"lo2":-89.0444,"dy":0.0017,"dx":0.0017,"nx":28,"ny":28,"refTime":"2023-08-18T09:00:00:Z","depth":"4","parameterNumber":3,"parameterNumberName":"V-component_of_CURRENTS"},"data":[0,0,0,0,0,0,0,0,0,0,0,0,0,0,0,0,0,0,0,0,0,0,0,0,0,0,0,0,0,0,0,0,0,0,0,0,0,0,0,0,0,0,0,0,0,0,0,0,0,0,0,0,0,0,0,0,0,0,0.0013,0.0012,0,-0.0066,-0.0067,-0.0068,-0.0059,-0.0057,-0.0055,-0.0054,-0.0072,-0.0074,-0.0076,0,0,0,0,0,0,0,0,0,0,0,0,0,0.0068,0.0067,0.0013,0.0012,0.0012,-0.0066,-0.0067,-0.0069,-0.0059,-0.0057,-0.0055,-0.0053,-0.0071,-0.0073,-0.0076,0,0,0,0,0,0,0,0,0,0,0,0,0,0.0018,0.0067,0.0013,0.001,0.0009,-0.0066,-0.0067,-0.0069,-0.0059,-0.0057,-0.0054,-0.0052,-0.007,-0.0073,-0.0076,-0.0144,0,0,-0.0085,-0.0087,0,0,0,0,0,0,0,0,0.0021,0.0016,0.0011,0.001,0.0009,-0.0047,-0.0054,-0.009,-0.006,-0.0038,-0.0054,-0.0051,-0.0057,-0.0061,-0.0088,-0.0145,-0.0146,-0.0086,-0.0087,-0.0089,-0.009,0,0,0,0,0,0,0,0.0025,0.0019,-0.0022,0.001,0.0009,-0.0023,-0.0026,-0.0062,-0.0062,-0.0039,-0.0038,-0.0041,-0.0057,-0.0085,-0.0088,-0.0146,-0.0086,-0.0088,-0.009,-0.0091,-0.0212,-0.0213,0,0,0,0,0,0,0.0045,0.0022,-0.002,-0.0024,0.0026,-0.0025,-0.0029,-0.0034,-0.0063,-0.0064,-0.0043,-0.004,-0.0081,-0.0084,-0.0088,-0.0138,-0.0089,-0.0092,-0.0093,-0.0211,-0.0212,-0.0214,0,0,0,0,0,0,0.0046,0.0042,-0.0017,0.0001,-0.0008,-0.0027,-0.0034,-0.0037,-0.0052,-0.0066,-0.0066,-0.0052,-0.0079,-0.0084,-0.0128,-0.0139,-0.0093,-0.0096,-0.0209,-0.0211,-0.0213,-0.0258,0,0,0,0,0,0,0.0048,0.0042,0.004,0.0002,-0.0008,-0.0056,-0.0036,-0.004,-0.0057,-0.0053,-0.0074,-0.0074,-0.0078,-0.0124,-0.0131,-0.0142,-0.0098,-0.0207,-0.021,-0.0213,-0.0254,-0.0261,-0.0267,0,0,0,0,0,0.005,0.0036,0.004,0.0035,-0.001,-0.0056,-0.0066,-0.0074,-0.0059,-0.0076,-0.0097,-0.0072,-0.0144,-0.0129,-0.0137,-0.0149,-0.0206,-0.0209,-0.0212,-0.0252,-0.026,-0.0267,0,0,0,0,0,0,0.0052,0.0034,0.0039,0.0019,-0.0011,-0.0053,-0.0074,-0.0077,-0.0111,-0.0107,-0.011,-0.0114,-0.0154,-0.0153,-0.0135,-0.0191,-0.0164,-0.0169,-0.0191,-0.0199,-0.0205,-0.0186,-0.0101,0,0,0,0,0,0.0053,0.0039,0.0016,-0.0005,-0.0018,-0.0046,-0.0066,-0.0074,-0.0105,-0.0117,-0.0132,-0.015,-0.018,-0.0188,-0.0218,-0.026,-0.023,-0.0267,-0.0273,-0.0278,-0.0268,-0.0232,-0.0233,-0.0224,-0.0224,-0.0224,0,0,0.0051,0.0035,0.003,-0.0005,-0.0031,-0.0063,-0.0054,-0.009,-0.0121,-0.0116,-0.0166,-0.0181,-0.02,-0.0245,-0.026,-0.024,-0.0272,-0.0282,-0.0286,-0.0273,-0.0236,-0.0236,-0.0236,-0.0226,-0.0226,-0.0226,0,0,0.0023,0.0021,-0.0002,-0.0029,-0.0065,-0.0083,-0.0088,-0.013,-0.0151,-0.0207,-0.0207,-0.0234,-0.028,-0.0297,-0.0309,-0.037,-0.0313,-0.0364,-0.0372,-0.0339,-0.0338,-0.0337,-0.0323,-0.0321,-0.0357,-0.0357,-0.0357,0,0.0019,-0.0007,-0.0019,-0.0057,-0.0077,-0.0087,-0.012,-0.0157,-0.0208,-0.0233,-0.0223,-0.0294,-0.0308,-0.0355,-0.0366,-0.0383,-0.0346,-0.0343,-0.0343,-0.0342,-0.034,-0.0326,-0.0322,-0.036,-0.036,-0.0359,-0.0359,0,-0.0025,-0.0048,-0.0071,-0.0108,-0.0136,-0.017,-0.0206,-0.0238,-0.0254,-0.0284,-0.034,-0.0369,-0.0388,-0.0406,-0.0404,-0.0405,-0.0379,-0.0361,-0.0318,-0.0343,-0.0328,-0.0323,-0.0364,-0.0363,-0.0362,-0.0361,0,0,-0.0028,-0.0087,-0.0091,-0.012,-0.0163,-0.0195,-0.0244,-0.0295,-0.0324,-0.0369,-0.0406,-0.0459,-0.0441,-0.0452,-0.0449,-0.0427,-0.0398,-0.0374,-0.0371,-0.0349,-0.0315,-0.0334,-0.033,-0.0354,-0.0354,-0.0353,-0.0317,0,-0.0058,-0.0118,-0.0141,-0.0201,-0.0233,-0.0259,-0.0307,-0.0354,-0.0384,-0.0425,-0.0453,-0.048,-0.0467,-0.0457,-0.0438,-0.0404,-0.0382,-0.0409,-0.0304,-0.0301,-0.0304,-0.0325,-0.035,-0.0314,-0.0312,-0.0312,-0.0311,0,-0.0088,-0.0125,-0.0178,-0.0246,-0.0264,-0.0304,-0.0359,-0.0403,-0.0457,-0.0478,-0.0492,-0.0487,-0.048,-0.0453,-0.0397,-0.0399,-0.0351,-0.033,-0.0328,-0.0319,-0.031,-0.0279,-0.0302,-0.0303,-0.0304,-0.0304,-0.0305,0,-0.0076,-0.0151,-0.0189,-0.0213,-0.0289,-0.0329,-0.0366,-0.0422,-0.0458,-0.0485,-0.0485,-0.0486,-0.0466,-0.0409,-0.0361,-0.0345,-0.0302,-0.0277,-0.0266,-0.0267,-0.0239,-0.0239,-0.0229,-0.023,-0.023,-0.023,-0.023,0,-0.0094,-0.0133,-0.0193,-0.0221,-0.0285,-0.0335,-0.0395,-0.0434,-0.0474,-0.0502,-0.049,-0.0485,-0.0437,-0.0408,-0.036,-0.0309,-0.0292,-0.0268,-0.0255,-0.0265,-0.0268,-0.0237,-0.0238,-0.0228,-0.0229,-0.0229,-0.0229,0,-0.0091,-0.0121,-0.018,-0.0256,-0.0285,-0.0332,-0.0409,-0.0444,-0.0469,-0.0491,-0.0481,-0.0466,-0.0407,-0.0391,-0.0319,-0.0306,-0.0264,-0.0253,-0.0291,-0.0281,-0.025,-0.0254,-0.0211,-0.0211,-0.0212,-0.0212,-0.0212,0,-0.0098,-0.0124,-0.0195,-0.0228,-0.0274,-0.0341,-0.0385,-0.0439,-0.0457,-0.0473,-0.0471,-0.043,-0.0411,-0.034,-0.0321,-0.0268,-0.0259,-0.0252,-0.0226,-0.0254,-0.0245,-0.0249,-0.0253,-0.0212,-0.0212,-0.0212,-0.0212,0,-0.0118,-0.0133,-0.0173,-0.0227,-0.0282,-0.0344,-0.04,-0.0404,-0.0444,-0.0463,-0.0427,-0.0398,-0.0361,-0.0315,-0.0299,-0.0258,-0.0263,-0.0253,-0.0251,-0.0227,-0.0255,-0.0247,-0.0251,-0.0213,-0.0213,-0.0213,-0.0213,0,-0.0125,-0.0147,-0.0177,-0.0227,-0.0284,-0.0325,-0.0365,-0.038,-0.0398,-0.0403,-0.039,-0.036,-0.0351,-0.031,-0.0291,-0.0266,-0.0235,-0.0222,-0.0221,-0.022,-0.0242,-0.0281,-0.0233,0,0,0,0,0,-0.0133,-0.0141,-0.0179,-0.0226,-0.0273,-0.0306,-0.0362,-0.0389,-0.0409,-0.0372,-0.038,-0.0339,-0.0301,-0.0288,-0.0254,-0.0291,-0.0244,-0.0255,-0.023,-0.0217,-0.0216,-0.0244,0,0,0,0,0,0,-0.0137,-0.0162,-0.0166,-0.0199,-0.0225,-0.0283,-0.0315,-0.034,-0.0316,-0.0328,-0.0295,-0.0319,-0.0271,-0.0294,-0.0239,-0.024,-0.0221,-0.0247,-0.0247,-0.0218,-0.0217,-0.0216,-0.0244,0,0,0,0,0]}]]